Terminal Aerodrome Forecast
Issued by NWS Sterling, VA

Current Version | Previous Version | Graphics & Text | Print | Product List | Glossary On
Versions: 1 2 3 4 5 6 7 8 9 10 11 12 13 14 15 16 17 18 19 20 21 22 23 24 25 26 27 28
000
FTUS41 KLWX 271500 AAA
TAFIAD
TAF AMD
KIAD 271521Z 2715/2818 32013G20KT P6SM BKN020 BKN050
     FM272300 32014G25KT P6SM BKN030
     FM280000 32014G24KT P6SM BKN040
     FM280300 33013G22KT P6SM SCT070=

USA.gov is the U.S. government's official web portal to all federal, state and local government web resources and services.